Flag for Germany Weather past 2 weeks in Bonn, North Rhine-Westphalia, Germany

Now
57 °F

Overcast.


Feels Like: 57 °F
Forecast: 49 / 67 °F
Wind: 5 mph from Southwest

Location: Bonn-Hangelar

Current Time: Aug 21, 2014 at 8:28:45 PM

Latest Report: Aug 21, 2014 at 8:00 PM


Visibility: 31 mi

Pressure: 29.98 "Hg

Humidity: 70%

Dew point: 48 °F

Location of BonnLocation

Historic Weather in Bonn — Graph

°F

Bonn temperature yesterday

Maximum temperature yesterday: 61 °F (at 4:00 PM)
Minimum temperature yesterday: 47 °F (at 6:00 AM)
Average temperature yesterday: 53 °F

Past Weeks' High & Low Weather Summary

 TemperatureHumidityPressure
High76 °F (Aug 8, 2:00 PM)98% (Aug 9, 12:00 AM)30.13 "Hg (Aug 9, 12:00 AM)
Low47 °F (Aug 21, 6:00 AM)53% (Aug 8, 2:00 PM)29.57 "Hg (Aug 10, 6:00 PM)
Average59 °F81%29.88 "Hg
* Reported Aug 6 7:00 PM — Aug 21 7:00 PM, Bonn, Weather by CustomWeather, © 2014

Note: Actual official high and low records may vary slightly from our data, if they occured in-between our weather recording intervals... More about our weather records

Advertising

Bonn weather history for previous 24 hours

 ConditionsComfort  
Time TempWeatherWind HumidityBarometerVisibility
7:00 PM
Aug 21
58 °FOvercast.5 mph69%30.00 "Hg31 mi
6:00 PM61 °FPartly sunny.5 mph60%29.99 "Hg31 mi
5:00 PM60 °FOvercast.6 mph60%30.00 "Hg31 mi
4:00 PM60 °FOvercast.6 mph65%30.01 "Hg31 mi
3:00 PM62 °FOvercast.8 mph58%30.02 "Hg31 mi
2:00 PM60 °FPartly sunny.8 mph61%30.03 "Hg31 mi
1:00 PM61 °FScattered clouds.7 mph62%30.03 "Hg31 mi
12:00 PM58 °FScattered clouds.7 mph71%30.04 "Hg22 mi
11:00 AM57 °FPassing clouds.7 mph71%30.05 "Hg19 mi
10:00 AM54 °FPassing clouds.5 mph79%30.04 "Hg19 mi
9:00 AM51 °FPassing clouds.6 mph86%30.05 "Hg14 mi
8:00 AM48 °FPassing clouds.6 mph90%30.06 "Hg11 mi
7:00 AM47 °FPassing clouds.5 mph94%30.05 "Hg9 mi
6:00 AM47 °FPassing clouds.5 mph94%30.05 "Hg7 mi
5:00 AM47 °FFog.5 mph93%30.05 "Hg4 mi
4:00 AM48 °FClear.5 mph92%30.05 "Hg5 mi
3:00 AM49 °FClear.5 mph89%30.06 "Hg8 mi
2:00 AM50 °FPassing clouds.5 mph87%30.05 "Hg14 mi
1:00 AM49 °FClear.3 mph91%30.05 "Hg8 mi
12:00 AM51 °FOvercast.2 mph88%30.04 "Hg13 mi
11:00 PM
Aug 20
52 °FLight rain. Overcast.3 mph88%30.04 "Hg7 mi
10:00 PM51 °FOvercast.2 mph89%30.04 "Hg16 mi
9:00 PM54 °FOvercast.1 mph83%30.02 "Hg22 mi
8:00 PM55 °FOvercast.5 mph80%30.02 "Hg31 mi
Weather by CustomWeather, © 2014

See weather overviewHow to use our weather pages